�������l�o���
Date,Time,MP-1(��Sv/h),MP-2(��Sv/h),MP-3(��Sv/h),MP-4(��Sv/h),MP-5(��Sv/h),MP-6(��Sv/h),MP-7(��Sv/h),MP-8(��Sv/h),����,����(m/s),���J
2020/10/26,00:00,0.654,0.934,0.594,1.141,0.823,0.383,0.663,0.628,��쐼,6.3,��
2020/10/26,00:10,0.654,0.932,0.594,1.142,0.825,0.383,0.662,0.627,�쐼,6.3,��
2020/10/26,00:20,0.656,0.934,0.592,1.142,0.824,0.382,0.662,0.626,�쐼,6.0,��
2020/10/26,00:30,0.656,0.933,0.594,1.143,0.824,0.382,0.663,0.626,�쐼,6.1,��
2020/10/26,00:40,0.656,0.934,0.595,1.142,0.825,0.382,0.664,0.627,�쐼,7.3,��
2020/10/26,00:50,0.656,0.934,0.594,1.142,0.825,0.383,0.664,0.628,�쐼,8.2,��
2020/10/26,01:00,0.656,0.933,0.595,1.142,0.825,0.384,0.662,0.628,�쐼,7.9,��
2020/10/26,01:10,0.654,0.935,0.595,1.142,0.826,0.383,0.663,0.628,�쐼,8.3,��
2020/10/26,01:20,0.655,0.932,0.595,1.143,0.826,0.382,0.665,0.626,�쐼,8.2,��
2020/10/26,01:30,0.656,0.934,0.594,1.143,0.825,0.382,0.664,0.626,�쐼,7.4,��
2020/10/26,01:40,0.656,0.934,0.596,1.144,0.824,0.382,0.665,0.627,�쐼,8.9,��
2020/10/26,01:50,0.655,0.932,0.594,1.143,0.824,0.381,0.664,0.626,�쐼,9.0,��
2020/10/26,02:00,0.655,0.934,0.594,1.142,0.824,0.382,0.663,0.627,�쐼,8.0,��
2020/10/26,02:10,0.656,0.933,0.592,1.142,0.824,0.382,0.663,0.627,�쐼,7.5,��
2020/10/26,02:20,0.656,0.934,0.594,1.143,0.824,0.382,0.663,0.628,�쐼,7.1,��
2020/10/26,02:30,0.654,0.933,0.594,1.145,0.826,0.383,0.665,0.628,�쐼,7.9,��
2020/10/26,02:40,0.655,0.933,0.593,1.142,0.827,0.382,0.663,0.629,�쐼,9.5,��
2020/10/26,02:50,0.653,0.934,0.594,1.142,0.824,0.382,0.664,0.628,�쐼,8.8,��
2020/10/26,03:00,0.655,0.935,0.594,1.143,0.826,0.383,0.665,0.629,�쐼,8.8,��
2020/10/26,03:10,0.655,0.933,0.594,1.145,0.824,0.382,0.664,0.628,�쐼,8.6,��
2020/10/26,03:20,0.656,0.935,0.594,1.143,0.825,0.382,0.663,0.627,�쐼,8.2,��
2020/10/26,03:30,0.654,0.933,0.595,1.145,0.823,0.381,0.664,0.628,�쐼,7.4,��
2020/10/26,03:40,0.654,0.933,0.595,1.143,0.825,0.383,0.662,0.626,�쐼,7.1,��
2020/10/26,03:50,0.655,0.934,0.595,1.144,0.825,0.381,0.665,0.627,�쐼,7.0,��
2020/10/26,04:00,0.656,0.933,0.594,1.145,0.824,0.383,0.665,0.628,�쐼,6.4,��
2020/10/26,04:10,0.655,0.933,0.594,1.144,0.825,0.383,0.664,0.628,�쐼,5.0,��
2020/10/26,04:20,0.654,0.933,0.593,1.143,0.824,0.380,0.664,0.627,�쐼,5.1,��
2020/10/26,04:30,0.654,0.935,0.593,1.143,0.826,0.382,0.663,0.628,�쐼,4.6,��
2020/10/26,04:40,0.655,0.933,0.594,1.144,0.825,0.382,0.664,0.627,�쐼,6.3,��
2020/10/26,04:50,0.653,0.932,0.594,1.143,0.824,0.382,0.664,0.626,���쐼,6.5,��
2020/10/26,05:00,0.654,0.933,0.592,1.142,0.824,0.383,0.665,0.626,�쐼,5.8,��
2020/10/26,05:10,0.654,0.934,0.595,1.142,0.824,0.382,0.662,0.627,�쐼,6.4,��
2020/10/26,05:20,0.656,0.933,0.595,1.143,0.825,0.380,0.662,0.625,���쐼,5.5,��
2020/10/26,05:30,0.654,0.935,0.593,1.143,0.825,0.382,0.663,0.627,�쐼,4.6,��
2020/10/26,05:40,0.655,0.935,0.592,1.142,0.824,0.382,0.665,0.627,�쐼,4.3,��
2020/10/26,05:50,0.654,0.934,0.593,1.146,0.825,0.382,0.664,0.625,���쐼,4.6,��
2020/10/26,06:00,0.654,0.931,0.594,1.143,0.824,0.382,0.663,0.627,���쐼,5.2,��
2020/10/26,06:10,0.654,0.932,0.595,1.143,0.824,0.381,0.661,0.626,���쐼,5.3,��
2020/10/26,06:20,0.655,0.935,0.593,1.142,0.825,0.382,0.663,0.627,���쐼,4.9,��
2020/10/26,06:30,0.653,0.934,0.593,1.142,0.825,0.381,0.665,0.627,��,2.8,��
2020/10/26,06:40,0.654,0.934,0.594,1.144,0.824,0.381,0.664,0.628,�k�k��,1.7,��
2020/10/26,06:50,0.655,0.933,0.593,1.141,0.822,0.381,0.664,0.626,�k�k��,1.7,��
2020/10/26,07:00,0.654,0.933,0.593,1.143,0.825,0.382,0.663,0.627,�k�k��,0.6,��
2020/10/26,07:10,0.653,0.934,0.592,1.143,0.823,0.381,0.665,0.626,���k��,0.6,��
2020/10/26,07:20,0.655,0.932,0.596,1.143,0.824,0.382,0.664,0.628,���k��,2.0,��
2020/10/26,07:30,0.654,0.934,0.594,1.142,0.825,0.381,0.664,0.627,���k��,3.6,��
2020/10/26,07:40,0.654,0.934,0.593,1.144,0.825,0.381,0.664,0.627,��,3.9,��
2020/10/26,07:50,0.654,0.933,0.593,1.142,0.824,0.380,0.665,0.628,��,3.9,��
2020/10/26,08:00,0.654,0.933,0.594,1.142,0.825,0.381,0.664,0.629,�쐼,1.9,��
2020/10/26,08:10,0.655,0.933,0.592,1.144,0.825,0.380,0.664,0.627,���쐼,1.4,��
2020/10/26,08:20,0.653,0.934,0.594,1.144,0.823,0.381,0.665,0.627,��,2.2,��
2020/10/26,08:30,0.655,0.933,0.595,1.141,0.826,0.382,0.663,0.628,���쐼,2.2,��
2020/10/26,08:40,0.654,0.931,0.594,1.143,0.825,0.381,0.663,0.627,�쐼,1.2,��
2020/10/26,08:50,0.656,0.931,0.596,1.143,0.824,0.381,0.662,0.627,�k��,1.4,��
2020/10/26,09:00,0.656,0.932,0.596,1.144,0.825,0.381,0.664,0.628,�k�k��,1.5,��
2020/10/26,09:10,0.658,0.929,0.593,1.144,0.825,0.381,0.663,0.627,�k��,1.4,��
2020/10/26,09:20,0.656,0.929,0.595,1.143,0.824,0.380,0.662,0.626,�k,0.8,��
2020/10/26,09:30,0.654,0.930,0.594,1.143,0.825,0.382,0.663,0.630,�k,2.6,��
2020/10/26,09:40,0.654,0.931,0.594,1.145,0.822,0.381,0.664,0.629,�k�k��,3.3,��
2020/10/26,09:50,0.655,0.930,0.593,1.144,0.824,0.381,0.664,0.627,�k,2.5,��
2020/10/26,10:00,0.655,0.929,0.593,1.146,0.822,0.379,0.663,0.628,�k�k��,2.2,��
2020/10/26,10:10,0.657,0.928,0.594,1.143,0.822,0.380,0.664,0.627,��,2.0,��
2020/10/26,10:20,0.654,0.930,0.592,1.143,0.821,0.380,0.665,0.625,��,2.2,��
2020/10/26,10:30,0.655,0.932,0.592,1.147,0.822,0.380,0.664,0.627,���쓌,2.5,��
2020/10/26,10:40,0.653,0.931,0.593,1.145,0.824,0.380,0.662,0.626,��,3.1,��
2020/10/26,10:50,0.656,0.931,0.593,1.146,0.821,0.380,0.664,0.625,���k��,3.5,��
2020/10/26,11:00,0.655,0.932,0.593,1.146,0.824,0.381,0.665,0.626,���k��,3.4,��
2020/10/26,11:10,0.655,0.930,0.592,1.145,0.825,0.380,0.664,0.625,���k��,3.7,��
2020/10/26,11:20,0.655,0.933,0.593,1.145,0.825,0.380,0.664,0.625,���쓌,3.8,��
2020/10/26,11:30,0.655,0.933,0.593,1.146,0.823,0.380,0.662,0.626,���쓌,3.3,��
2020/10/26,11:40,0.654,0.933,0.593,1.145,0.825,0.379,0.663,0.625,���쓌,3.4,��
2020/10/26,11:50,0.656,0.936,0.594,1.146,0.825,0.380,0.662,0.625,���쓌,3.7,��
2020/10/26,12:00,0.655,0.936,0.592,1.145,0.826,0.380,0.664,0.626,���쓌,3.0,��
2020/10/26,12:10,0.655,0.934,0.592,1.145,0.824,0.380,0.663,0.626,�쓌,2.3,��
2020/10/26,12:20,0.655,0.933,0.593,1.145,0.824,0.380,0.663,0.626,�쓌,3.7,��
2020/10/26,12:30,0.655,0.936,0.594,1.147,0.827,0.380,0.664,0.626,�쓌,3.3,��
2020/10/26,12:40,0.654,0.935,0.593,1.145,0.824,0.380,0.664,0.627,�쓌,3.1,��
2020/10/26,12:50,0.654,0.935,0.593,1.146,0.827,0.380,0.662,0.626,���쓌,3.1,��
2020/10/26,13:00,0.654,0.935,0.593,1.148,0.827,0.382,0.664,0.624,��,3.6,��
2020/10/26,13:10,0.654,0.933,0.595,1.145,0.827,0.380,0.662,0.625,���k��,3.8,��
2020/10/26,13:20,0.655,0.934,0.594,1.147,0.827,0.381,0.664,0.624,��,4.1,��
2020/10/26,13:30,0.655,0.936,0.594,1.145,0.828,0.379,0.664,0.626,���쓌,4.3,��
2020/10/26,13:40,0.655,0.936,0.595,1.148,0.827,0.379,0.665,0.626,���k��,3.6,��
2020/10/26,13:50,0.652,0.935,0.594,1.147,0.829,0.382,0.664,0.627,���k��,4.2,��
2020/10/26,14:00,0.654,0.935,0.594,1.146,0.826,0.380,0.664,0.625,�k��,4.7,��
2020/10/26,14:10,0.656,0.935,0.594,1.147,0.821,0.381,0.665,0.626,���k��,5.4,��
2020/10/26,14:20,0.654,0.936,0.593,1.146,0.826,0.381,0.663,0.628,���k��,4.5,��
2020/10/26,14:30,0.654,0.937,0.594,1.148,0.826,0.381,0.664,0.627,��,4.9,��
2020/10/26,14:40,0.655,0.935,0.595,1.148,0.828,0.381,0.665,0.625,���k��,3.8,��
2020/10/26,14:50,0.654,0.936,0.594,1.149,0.828,0.380,0.664,0.626,��,2.9,��
2020/10/26,15:00,0.656,0.935,0.596,1.149,0.826,0.380,0.666,0.627,��,1.2,��
2020/10/26,15:10,0.655,0.936,0.594,1.147,0.827,0.381,0.664,0.628,��,2.8,��
2020/10/26,15:20,0.655,0.936,0.594,1.147,0.828,0.377,0.665,0.625,�k��,2.3,��
2020/10/26,15:30,0.654,0.938,0.593,1.147,0.829,0.381,0.665,0.626,�k��,1.4,��
2020/10/26,15:40,0.654,0.936,0.594,1.149,0.828,0.381,0.665,0.626,�k,1.7,��
2020/10/26,15:50,0.654,0.938,0.595,1.148,0.828,0.382,0.665,0.626,�k�k��,3.9,��
2020/10/26,16:00,0.654,0.938,0.592,1.147,0.827,0.381,0.664,0.625,�k�k��,4.0,��
2020/10/26,16:10,0.654,0.936,0.595,1.148,0.827,0.383,0.665,0.627,�k,3.5,��
2020/10/26,16:20,0.653,0.940,0.592,1.149,0.827,0.385,0.663,0.627,�k�k��,4.1,��
2020/10/26,16:30,0.654,0.940,0.595,1.148,0.826,0.380,0.664,0.627,�k,4.4,��
2020/10/26,16:40,0.655,0.941,0.595,1.148,0.827,0.382,0.664,0.628,�k�k��,4.3,��
2020/10/26,16:50,0.655,0.940,0.597,1.150,0.829,0.383,0.664,0.629,�k,3.2,��
2020/10/26,17:00,0.654,0.939,0.596,1.147,0.829,0.381,0.666,0.630,�k�k��,3.1,��
2020/10/26,17:10,0.655,0.941,0.598,1.146,0.829,0.383,0.666,0.628,�k�k��,2.6,��
2020/10/26,17:20,0.656,0.939,0.597,1.146,0.831,0.382,0.667,0.629,�k,1.7,��
2020/10/26,17:30,0.657,0.940,0.596,1.149,0.830,0.383,0.665,0.628,�k,2.8,��
2020/10/26,17:40,0.657,0.939,0.595,1.147,0.829,0.384,0.668,0.628,�k�k��,2.9,��
2020/10/26,17:50,0.655,0.942,0.597,1.148,0.830,0.383,0.666,0.629,�k�k��,1.7,��
2020/10/26,18:00,0.656,0.940,0.596,1.148,0.828,0.383,0.665,0.628,�k��,2.6,��
2020/10/26,18:10,0.654,0.940,0.597,1.147,0.828,0.383,0.666,0.629,�k��,2.0,��
2020/10/26,18:20,0.654,0.939,0.597,1.148,0.829,0.383,0.665,0.629,�k��,3.5,��
2020/10/26,18:30,0.656,0.940,0.596,1.146,0.829,0.383,0.666,0.628,�k�k��,3.0,��
2020/10/26,18:40,0.654,0.941,0.597,1.149,0.829,0.382,0.666,0.629,�k�k��,3.1,��
2020/10/26,18:50,0.655,0.941,0.597,1.146,0.830,0.381,0.666,0.627,�k�k��,4.3,��
2020/10/26,19:00,0.654,0.939,0.595,1.150,0.828,0.382,0.666,0.629,�k�k��,3.3,��
2020/10/26,19:10,0.655,0.940,0.596,1.146,0.830,0.382,0.666,0.627,�k�k��,2.9,��
2020/10/26,19:20,0.656,0.939,0.595,1.150,0.831,0.382,0.667,0.626,�k,3.8,��
2020/10/26,19:30,0.655,0.935,0.596,1.148,0.828,0.382,0.665,0.626,�k�k��,4.6,��
2020/10/26,19:40,0.655,0.940,0.597,1.148,0.831,0.382,0.666,0.626,�k��,4.6,��
2020/10/26,19:50,0.652,0.939,0.596,1.149,0.829,0.383,0.666,0.628,�k��,4.9,��
2020/10/26,20:00,0.655,0.941,0.597,1.149,0.829,0.382,0.666,0.628,�k�k��,4.6,��
2020/10/26,20:10,0.654,0.940,0.597,1.149,0.830,0.382,0.666,0.629,�k��,5.2,��
2020/10/26,20:20,0.654,0.939,0.596,1.148,0.830,0.381,0.665,0.628,�k��,5.1,��
2020/10/26,20:30,0.656,0.937,0.597,1.151,0.830,0.381,0.664,0.627,�k��,3.2,��
2020/10/26,20:40,0.654,0.938,0.596,1.148,0.831,0.382,0.664,0.629,�k��,3.3,��
2020/10/26,20:50,0.655,0.940,0.597,1.151,0.829,0.382,0.666,0.628,�k��,4.1,��
2020/10/26,21:00,0.654,0.938,0.594,1.149,0.829,0.382,0.665,0.628,���k��,3.4,��
2020/10/26,21:10,0.655,0.936,0.596,1.146,0.829,0.381,0.666,0.627,���k��,3.9,��
2020/10/26,21:20,0.656,0.937,0.597,1.146,0.829,0.381,0.664,0.627,���k��,4.7,��
2020/10/26,21:30,0.655,0.938,0.596,1.148,0.829,0.381,0.664,0.628,���k��,6.1,��
2020/10/26,21:40,0.655,0.938,0.598,1.149,0.831,0.382,0.665,0.627,�k��,4.8,��
2020/10/26,21:50,0.654,0.938,0.596,1.150,0.829,0.382,0.666,0.628,�k��,5.1,��
2020/10/26,22:00,0.658,0.941,0.596,1.146,0.827,0.382,0.667,0.627,�k��,5.4,��
2020/10/26,22:10,0.655,0.940,0.597,1.150,0.830,0.382,0.665,0.626,�k��,5.2,��
2020/10/26,22:20,0.655,0.937,0.595,1.149,0.829,0.381,0.666,0.626,�k�k��,5.3,��
2020/10/26,22:30,0.656,0.939,0.595,1.149,0.828,0.383,0.665,0.626,�k��,4.2,��
2020/10/26,22:40,0.654,0.939,0.593,1.149,0.830,0.382,0.664,0.628,�k��,5.4,��
2020/10/26,22:50,0.654,0.939,0.596,1.147,0.827,0.382,0.666,0.628,�k��,5.0,��
2020/10/26,23:00,0.656,0.937,0.595,1.146,0.829,0.382,0.666,0.628,�k��,5.1,��
2020/10/26,23:10,0.655,0.939,0.595,1.146,0.828,0.383,0.666,0.627,�k��,4.8,��
2020/10/26,23:20,0.655,0.937,0.594,1.149,0.828,0.382,0.665,0.628,�k��,4.7,��
2020/10/26,23:30,0.655,0.939,0.593,1.150,0.829,0.382,0.665,0.627,�k��,4.0,��
2020/10/26,23:40,0.654,0.939,0.597,1.149,0.829,0.381,0.664,0.628,�k��,2.6,��
2020/10/26,23:50,0.655,0.936,0.596,1.151,0.828,0.383,0.665,0.627,�k��,1.5,��
